Location: Elkol
(41.7238°N, 110.6124°W)
Time: 06:57:37
(UTC+00:00)

Envisat - Pass Details

Date: 19 January 2022
Orbit: 764 x 765 km, 98.2° (Epoch: 21 May)

Event Time Altitude Azimuth Distance (km) Brightness Sun altitude
Rises 13:38:50 0° 357° (N) 3,239 6.0 -12.3°
Reaches altitude 10° 13:41:48 10° 339° (NNW) 2,308 5.1 -11.8°
Maximum altitude 13:45:09 18° 297° (WNW) 1,808 4.3 -11.2°
Drops below altitude 10° 13:48:30 10° 256° (WSW) 2,299 5.0 -10.6°
Sets 13:51:27 0° 238° (WSW) 3,221 5.9 -10.1°
